Gillette, WY

12:46 PM MDT on September 26, 2017 (GMT -0600)
Gillette-Campbell County

Weather History for KGCC - October, 2011

Change the Weather History Date:

Sunday, October 2, 2011

  Actual Average Record
Temperature  
Mean Temperature 69 °F 50 °F  
Max Temperature 87 °F 64 °F 87 °F (2011)
Min Temperature 50 °F 37 °F 20 °F (1950)
Degree Days  
Heating Degree Days 0 15  
Month to date heating degree days 0 29  
Since 1 July heating degree days 162 324  
Cooling Degree Days 4 0  
Month to date cooling degree days 10 0  
Year to date cooling degree days 551 500  
Growing Degree Days 20 (Base 50)    
Moisture  
Dew Point 37 °F    
Average Humidity 43    
Maximum Humidity 71    
Minimum Humidity 14    
Precipitation  
Precipitation 0.03 in 0.06 in 1.28 in (2016)
Month to date precipitation 0.03 0.11  
Year to date precipitation 14.97 11.78  
Sea Level Pressure  
Sea Level Pressure 29.91 in    
Wind  
Wind Speed 7 mph (WSW)    
Max Wind Speed 38 mph    
Max Gust Speed 51 mph    
Visibility 10 miles    
Events Rain    
T = Trace of Precipitation, MM = Missing Value Source: NWS Daily Summary

Daily Weather History Graph

Daily Weather History Graph

Search for Another Location

Airport or City:

Trip Planner

Search our weather history database for the weather conditions in past years. The results will help you decide how hot, cold, wet, or windy it might be!

Date:

Astronomy

Oct. 02, 2011 Rise Set
Actual Time 7:00 AM MDT 6:41 PM MDT
Civil Twilight 6:31 AM MDT 7:10 PM MDT
Nautical Twilight 5:58 AM MDT 7:43 PM MDT
Astronomical Twilight 5:24 AM MDT 8:17 PM MDT
Moon 1:23 PM MDT (10/2) 10:29 PM MDT (10/2)
Length of Visible Light 12h 38m
Length of Day
11h 40m
Waxing Crescent, 35% of the Moon is Illuminated
Oct 2
Waxing Crescent
Oct 3
First Quarter
Oct 11
Full
Oct 19
Last Quarter
Oct 26
New

Hourly Weather History & Observations

Time (MDT) Temp. Dew Point Humidity Pressure Visibility Wind Dir Wind Speed Gust Speed Precip Events Conditions
12:53 AM 66.0 °F 28.0 °F 24% 29.85 in 10.0 mi South 15.0 mph - N/A   Clear
1:53 AM 64.0 °F 28.9 °F 27% 29.85 in 10.0 mi South 16.1 mph - N/A   Clear
2:53 AM 64.4 °F 32.0 °F 30% 30.00 in 10.0 mi South 15.0 mph - N/A   Clear
3:53 AM 64.4 °F 33.8 °F 32% 30.00 in 10.0 mi SSW 16.1 mph 26.5 mph N/A   Clear
4:53 AM 66.0 °F 35.1 °F 32% 29.84 in 10.0 mi SSW 17.3 mph - N/A   Clear
5:53 AM 64.0 °F 35.1 °F 34% 29.85 in 10.0 mi SSW 15.0 mph - N/A   Clear
6:53 AM 57.9 °F 35.1 °F 42% 29.91 in 10.0 mi East 4.6 mph - N/A   Clear
7:53 AM 63.0 °F 35.1 °F 35% 29.93 in 10.0 mi SSE 3.5 mph - N/A   Clear
8:53 AM 72.0 °F 36.0 °F 27% 29.90 in 10.0 mi WSW 4.6 mph - N/A   Clear
9:53 AM 75.2 °F 35.6 °F 24% 30.04 in 10.0 mi WSW 13.8 mph - N/A   Clear
10:53 AM 80.1 °F 35.1 °F 20% 29.88 in 10.0 mi WSW 8.1 mph 16.1 mph N/A   Clear
11:53 AM 82.4 °F 33.8 °F 17% 30.02 in 10.0 mi Variable 6.9 mph - N/A   Clear
12:53 PM 86.0 °F 32.0 °F 14% 29.85 in 10.0 mi Variable 5.8 mph - N/A   Clear
1:53 PM 86.0 °F 33.1 °F 15% 29.84 in 10.0 mi Variable 3.5 mph - N/A   Clear
2:53 PM 86.0 °F 33.1 °F 15% 29.82 in 10.0 mi NW 9.2 mph - N/A   Clear
3:53 PM 86.0 °F 32.0 °F 14% 29.82 in 10.0 mi WNW 5.8 mph - N/A   Clear
4:53 PM 84.0 °F 33.1 °F 16% 29.83 in 10.0 mi Calm Calm - N/A   Clear
5:53 PM 80.1 °F 36.0 °F 20% 29.84 in 10.0 mi Calm Calm - N/A   Clear
6:53 PM 66.0 °F 37.0 °F 34% 29.90 in 10.0 mi Calm Calm - N/A   Partly Cloudy
7:15 PM 71.6 °F 42.8 °F 35% 30.03 in 4.0 mi NW 12.7 mph 50.6 mph 0.00 in Rain Heavy Rain
7:48 PM 68.0 °F 46.4 °F 46% 30.04 in 10.0 mi NNW 17.3 mph 24.2 mph 0.03 in   Overcast
7:53 PM 66.9 °F 46.9 °F 49% 29.94 in 10.0 mi NNW 11.5 mph 21.9 mph 0.03 in   Overcast
8:53 PM 63.0 °F 44.1 °F 50% 29.92 in 10.0 mi NNW 10.4 mph - N/A   Clear
9:53 PM 55.9 °F 45.0 °F 67% 29.95 in 10.0 mi Calm Calm - N/A   Partly Cloudy
10:53 PM 55.9 °F 43.0 °F 62% 29.96 in 10.0 mi WNW 6.9 mph - N/A   Partly Cloudy
11:53 PM 54.0 °F 44.1 °F 69% 29.96 in 10.0 mi Calm Calm - N/A   Clear